CAL822 RCTP-RJFF

Flight info

Callsign CAL822
Flight time 1h 34m
Altitude 39000
Route PIANO1A PIANO L3 SALMI Y743 BOLUT Y741 ATOTI Y722 ELGEP Y590 BEDAR Y591 FUE Y253 ATSAG
Aircraft A359/H-SDE1E2E3FGHIJ1J2J3J4J5M1P2RWY/LB1D1

Departure

Time 2026-02-19 14:24
Airport Taiwan Taoyuan International Airport (RCTP)

Arrival

Time 2026-02-19 15:59
Airport Fukuoka Airport (RJFF)
Time Latitude Longitude Altitude Speed Heading
2026-02-19 13:46 25.08356 121.23661 104 ft 0 kts 139°
2026-02-19 14:09 25.08358 121.23658 107 ft 2 kts 139°
2026-02-19 14:09 25.08377 121.23640 104 ft 3 kts 139°
2026-02-19 14:09 25.08387 121.23630 105 ft 3 kts 139°
2026-02-19 14:10 25.08403 121.23616 105 ft 3 kts 139°
2026-02-19 14:10 25.08418 121.23601 104 ft 3 kts 139°
2026-02-19 14:10 25.08434 121.23586 104 ft 3 kts 139°
2026-02-19 14:10 25.08446 121.23574 105 ft 3 kts 172°
2026-02-19 14:11 25.08459 121.23577 106 ft 2 kts 227°
2026-02-19 14:11 25.08467 121.23587 106 ft 3 kts 229°
2026-02-19 14:11 25.08480 121.23603 107 ft 3 kts 229°
2026-02-19 14:11 25.08490 121.23616 110 ft 1 kts 229°
2026-02-19 14:12 25.08490 121.23617 110 ft 0 kts 229°
2026-02-19 14:14 25.08463 121.23582 106 ft 10 kts 228°
2026-02-19 14:14 25.08431 121.23513 111 ft 10 kts 283°
2026-02-19 14:15 25.08467 121.23448 106 ft 10 kts 280°
2026-02-19 14:15 25.08435 121.23377 105 ft 12 kts 234°
2026-02-19 14:15 25.08380 121.23307 107 ft 13 kts 229°
2026-02-19 14:15 25.08317 121.23226 104 ft 14 kts 229°
2026-02-19 14:16 25.08252 121.23142 106 ft 15 kts 229°
2026-02-19 14:16 25.08099 121.22949 105 ft 19 kts 229°
2026-02-19 14:16 25.08030 121.22862 104 ft 15 kts 228°
2026-02-19 14:17 25.07958 121.22770 104 ft 17 kts 229°
2026-02-19 14:17 25.07879 121.22668 105 ft 19 kts 229°
2026-02-19 14:17 25.07801 121.22569 105 ft 16 kts 229°
2026-02-19 14:17 25.07724 121.22471 106 ft 18 kts 229°
2026-02-19 14:18 25.07639 121.22365 104 ft 19 kts 230°
2026-02-19 14:18 25.07548 121.22247 105 ft 21 kts 230°
2026-02-19 14:18 25.07448 121.22119 105 ft 23 kts 229°
2026-02-19 14:18 25.07350 121.21996 104 ft 17 kts 229°
2026-02-19 14:19 25.07290 121.21919 105 ft 12 kts 229°
2026-02-19 14:19 25.07229 121.21842 106 ft 15 kts 229°
2026-02-19 14:19 25.07176 121.21770 105 ft 7 kts 243°
2026-02-19 14:19 25.07193 121.21724 106 ft 7 kts 312°
2026-02-19 14:20 25.07229 121.21689 105 ft 0 kts 320°
2026-02-19 14:22 25.07230 121.21688 105 ft 1 kts 320°
2026-02-19 14:22 25.07257 121.21664 105 ft 7 kts 320°
2026-02-19 14:23 25.07301 121.21633 105 ft 8 kts 348°
2026-02-19 14:23 25.07343 121.21667 106 ft 9 kts 48°
2026-02-19 14:23 25.07431 121.21775 104 ft 43 kts 48°
2026-02-19 14:23 25.07786 121.22226 106 ft 111 kts 49°
2026-02-19 14:24 25.08430 121.23047 119 ft 167 kts 47°
2026-02-19 14:24 25.10047 121.25031 1509 ft 178 kts 49°
2026-02-19 14:24 25.10915 121.26154 1875 ft 205 kts 51°
2026-02-19 14:25 25.11884 121.27408 2327 ft 224 kts 50°
2026-02-19 14:25 25.13097 121.28575 2750 ft 245 kts 28°
2026-02-19 14:25 25.14813 121.28960 3221 ft 260 kts 357°
2026-02-19 14:25 25.16589 121.28820 4138 ft 258 kts 353°
2026-02-19 14:26 25.18412 121.28681 4808 ft 269 kts 354°
2026-02-19 14:26 25.20326 121.28590 5453 ft 279 kts 355°
2026-02-19 14:26 25.22263 121.28527 6351 ft 279 kts 356°
2026-02-19 14:26 25.24215 121.28487 7250 ft 280 kts 356°
2026-02-19 14:27 25.26169 121.28463 8160 ft 282 kts 356°
2026-02-19 14:27 25.28131 121.28452 9113 ft 283 kts 355°
2026-02-19 14:27 25.30111 121.28419 10030 ft 285 kts 353°
2026-02-19 14:27 25.32126 121.28353 10635 ft 299 kts 352°
2026-02-19 14:28 25.34283 121.28290 10995 ft 321 kts 354°
2026-02-19 14:28 25.38921 121.29417 11964 ft 363 kts 22°
2026-02-19 14:28 25.41031 121.31026 12707 ft 376 kts 38°
2026-02-19 14:29 25.42852 121.33143 13492 ft 384 kts 44°
2026-02-19 14:29 25.44603 121.35401 14203 ft 389 kts 45°
2026-02-19 14:29 25.46368 121.37696 14820 ft 394 kts 44°
2026-02-19 14:29 25.48166 121.40019 15416 ft 401 kts 44°
2026-02-19 14:30 25.49998 121.42376 16012 ft 407 kts 44°
2026-02-19 14:30 25.51857 121.44762 16624 ft 412 kts 44°
2026-02-19 14:30 25.53739 121.47175 17234 ft 417 kts 44°
2026-02-19 14:30 25.55652 121.49625 17806 ft 424 kts 43°
2026-02-19 14:31 25.57590 121.52107 18408 ft 429 kts 43°
2026-02-19 14:31 25.59553 121.54623 18905 ft 434 kts 43°
2026-02-19 14:31 25.61543 121.57174 19412 ft 440 kts 43°
2026-02-19 14:31 25.63523 121.59714 19911 ft 444 kts 43°
2026-02-19 14:32 25.65550 121.62316 20430 ft 449 kts 42°
2026-02-19 14:32 25.69671 121.67608 21447 ft 458 kts 42°
2026-02-19 14:32 25.71764 121.70298 21948 ft 463 kts 42°
2026-02-19 14:33 25.73876 121.73015 22500 ft 468 kts 41°
2026-02-19 14:33 25.76011 121.75762 22994 ft 473 kts 41°
2026-02-19 14:33 25.78168 121.78541 23523 ft 477 kts 41°
2026-02-19 14:33 25.80415 121.81251 23964 ft 476 kts 36°
2026-02-19 14:34 25.82921 121.83643 24346 ft 476 kts 30°
2026-02-19 14:34 25.85548 121.85884 24726 ft 478 kts 27°
2026-02-19 14:34 25.88255 121.88068 25130 ft 482 kts 26°
2026-02-19 14:34 25.91003 121.90236 25520 ft 487 kts 26°
2026-02-19 14:35 25.93781 121.92424 25901 ft 493 kts 26°
2026-02-19 14:35 25.96590 121.94653 26288 ft 499 kts 26°
2026-02-19 14:35 25.99426 121.96920 26650 ft 505 kts 27°
2026-02-19 14:35 26.02283 121.99222 27036 ft 510 kts 27°
2026-02-19 14:36 26.05170 122.01549 27419 ft 515 kts 26°
2026-02-19 14:36 26.11074 122.06173 28151 ft 524 kts 26°
2026-02-19 14:36 26.14074 122.08500 28505 ft 529 kts 26°
2026-02-19 14:37 26.17110 122.10858 28890 ft 534 kts 26°
2026-02-19 14:37 26.20169 122.13241 29183 ft 540 kts 26°
2026-02-19 14:37 26.23255 122.15652 29538 ft 544 kts 26°
2026-02-19 14:37 26.26363 122.18089 29879 ft 549 kts 26°
2026-02-19 14:38 26.29499 122.20551 30209 ft 553 kts 26°
2026-02-19 14:38 26.32658 122.23034 30496 ft 557 kts 26°
2026-02-19 14:38 26.35833 122.25533 30803 ft 561 kts 26°
2026-02-19 14:38 26.39024 122.28047 31160 ft 564 kts 26°
2026-02-19 14:39 26.42243 122.30584 31395 ft 568 kts 26°
2026-02-19 14:39 26.45480 122.33136 31689 ft 571 kts 26°
2026-02-19 14:39 26.48729 122.35698 31976 ft 573 kts 27°
2026-02-19 14:39 26.51990 122.38273 32282 ft 576 kts 27°
2026-02-19 14:40 26.55268 122.40861 32545 ft 578 kts 27°
2026-02-19 14:40 26.61869 122.46080 33085 ft 584 kts 27°
2026-02-19 14:40 26.65189 122.48708 33326 ft 587 kts 27°
2026-02-19 14:41 26.68528 122.51352 33577 ft 589 kts 27°
2026-02-19 14:41 26.71876 122.54005 33813 ft 591 kts 27°
2026-02-19 14:41 26.75231 122.56666 34077 ft 592 kts 27°
2026-02-19 14:41 26.78548 122.59301 34398 ft 592 kts 27°
2026-02-19 14:42 26.81888 122.61957 34765 ft 590 kts 27°
2026-02-19 14:42 26.85248 122.64632 35084 ft 589 kts 26°
2026-02-19 14:42 26.88583 122.67287 35407 ft 588 kts 26°
2026-02-19 14:42 26.91916 122.69942 35732 ft 586 kts 26°
2026-02-19 14:43 26.95237 122.72588 36045 ft 585 kts 26°
2026-02-19 14:43 26.98553 122.75231 36343 ft 584 kts 26°
2026-02-19 14:43 27.01863 122.77870 36643 ft 583 kts 26°
2026-02-19 14:43 27.05166 122.80506 36924 ft 582 kts 26°
2026-02-19 14:44 27.08464 122.83141 37199 ft 582 kts 26°
2026-02-19 14:44 27.15040 122.88412 37761 ft 579 kts 26°
2026-02-19 14:44 27.18312 122.91036 38037 ft 578 kts 26°
2026-02-19 14:45 27.21584 122.93660 38333 ft 577 kts 26°
2026-02-19 14:45 27.24819 122.96333 38617 ft 580 kts 28°
2026-02-19 14:45 27.27962 122.99219 38753 ft 586 kts 31°
2026-02-19 14:45 27.31044 123.02232 38951 ft 588 kts 32°
2026-02-19 14:46 27.34100 123.05287 39153 ft 587 kts 32°
2026-02-19 14:46 27.37154 123.08335 39258 ft 587 kts 32°
2026-02-19 14:46 27.40220 123.11363 39272 ft 585 kts 32°
2026-02-19 14:47 27.46391 123.17360 39275 ft 585 kts 31°
2026-02-19 14:47 27.52586 123.23312 39273 ft 586 kts 31°
2026-02-19 14:48 27.58751 123.29229 39276 ft 586 kts 31°
2026-02-19 14:48 27.68048 123.38190 39279 ft 587 kts 31°
2026-02-19 14:49 27.74266 123.44199 39276 ft 589 kts 31°
2026-02-19 14:49 27.80485 123.50224 39278 ft 589 kts 31°
2026-02-19 14:50 27.86700 123.56254 39281 ft 589 kts 30°
2026-02-19 14:50 27.92925 123.62300 39278 ft 590 kts 31°
2026-02-19 14:51 27.99147 123.68353 39286 ft 590 kts 31°
2026-02-19 14:51 28.05366 123.74423 39301 ft 590 kts 30°
2026-02-19 14:52 28.14709 123.83539 39290 ft 591 kts 30°
2026-02-19 14:53 28.20936 123.89627 39285 ft 591 kts 30°
2026-02-19 14:53 28.27127 123.95693 39275 ft 593 kts 30°
2026-02-19 14:54 28.33037 124.02461 39288 ft 610 kts 43°
2026-02-19 14:54 28.38230 124.10039 39285 ft 614 kts 46°
2026-02-19 14:55 28.43300 124.17862 39288 ft 616 kts 46°
2026-02-19 14:55 28.48362 124.25723 39286 ft 616 kts 46°
2026-02-19 14:56 28.53449 124.33569 39287 ft 616 kts 46°
2026-02-19 14:56 28.61094 124.45320 39291 ft 617 kts 46°
2026-02-19 14:57 28.66206 124.53189 39284 ft 618 kts 46°
2026-02-19 14:57 28.71306 124.61066 39287 ft 617 kts 46°
2026-02-19 14:58 28.75816 124.67258 39317 ft 601 kts 33°
2026-02-19 14:58 28.79022 124.70172 39289 ft 580 kts 20°
2026-02-19 14:58 28.82503 124.72291 39290 ft 557 kts
2026-02-19 14:59 28.89657 124.75439 39289 ft 548 kts
2026-02-19 14:59 28.96864 124.78233 39287 ft 546 kts
2026-02-19 15:00 29.07677 124.82436 39291 ft 548 kts
2026-02-19 15:01 29.14880 124.85302 39291 ft 548 kts
2026-02-19 15:01 29.22087 124.88193 39292 ft 548 kts
2026-02-19 15:02 29.29240 124.91065 39289 ft 548 kts
2026-02-19 15:02 29.36440 124.93956 39286 ft 548 kts
2026-02-19 15:03 29.43637 124.96853 39292 ft 547 kts
2026-02-19 15:03 29.50808 124.99742 39272 ft 546 kts
2026-02-19 15:04 29.58000 125.02637 39290 ft 548 kts
2026-02-19 15:04 29.68776 125.06996 39287 ft 546 kts
2026-02-19 15:05 29.75948 125.09900 39288 ft 547 kts
2026-02-19 15:05 29.83114 125.12807 39293 ft 543 kts
2026-02-19 15:06 29.86663 125.13784 44254 ft 513 kts 348°
2026-02-19 15:06 29.90215 125.14604 43960 ft 528 kts
2026-02-19 15:06 29.93313 125.15873 43707 ft 532 kts
2026-02-19 15:06 29.96699 125.17533 43308 ft 524 kts
2026-02-19 15:07 30.00022 125.19214 42350 ft 519 kts
2026-02-19 15:07 30.00584 125.19494 42179 ft 519 kts
2026-02-19 15:07 30.03797 125.21040 40986 ft 521 kts
2026-02-19 15:07 30.07153 125.22544 40084 ft 526 kts
2026-02-19 15:08 30.10629 125.24024 39551 ft 526 kts
2026-02-19 15:08 30.17552 125.26870 39286 ft 530 kts
2026-02-19 15:09 30.24465 125.29690 39304 ft 531 kts
2026-02-19 15:09 30.31434 125.32546 39285 ft 532 kts
2026-02-19 15:10 30.38385 125.35413 39286 ft 528 kts
2026-02-19 15:10 30.45290 125.38265 39295 ft 526 kts
2026-02-19 15:11 30.52200 125.41111 39281 ft 527 kts
2026-02-19 15:11 30.59110 125.43963 39279 ft 527 kts
2026-02-19 15:12 30.66029 125.46826 39288 ft 528 kts
2026-02-19 15:12 30.76423 125.51136 39267 ft 529 kts
2026-02-19 15:13 30.83352 125.54018 39328 ft 529 kts
2026-02-19 15:13 30.90288 125.56905 39276 ft 530 kts
2026-02-19 15:14 30.97228 125.59797 39276 ft 530 kts
2026-02-19 15:14 31.04175 125.62697 39276 ft 530 kts
2026-02-19 15:15 31.11119 125.65602 39276 ft 530 kts
2026-02-19 15:15 31.18065 125.68511 39276 ft 530 kts
2026-02-19 15:16 31.28343 125.72846 39272 ft 518 kts
2026-02-19 15:17 31.35113 125.75688 39246 ft 517 kts
2026-02-19 15:17 31.41900 125.78531 39272 ft 518 kts
2026-02-19 15:18 31.48682 125.81387 39272 ft 517 kts
2026-02-19 15:18 31.55443 125.84246 39270 ft 517 kts
2026-02-19 15:19 31.62180 125.87096 39276 ft 520 kts
2026-02-19 15:19 31.68836 125.89905 39274 ft 526 kts
2026-02-19 15:19 31.72207 125.91805 39271 ft 551 kts 15°
2026-02-19 15:20 31.75380 125.94524 39263 ft 579 kts 30°
2026-02-19 15:20 31.80207 126.02461 39336 ft 618 kts 62°
2026-02-19 15:20 31.81673 126.07231 39284 ft 623 kts 71°
2026-02-19 15:21 31.83708 126.17139 39268 ft 624 kts 77°
2026-02-19 15:21 31.85513 126.27117 39248 ft 624 kts 76°
2026-02-19 15:22 31.88572 126.42037 39268 ft 626 kts 73°
2026-02-19 15:23 31.90727 126.51947 39254 ft 624 kts 73°
2026-02-19 15:23 31.92927 126.61830 39271 ft 625 kts 73°
2026-02-19 15:24 31.97317 126.81642 39266 ft 626 kts 73°
2026-02-19 15:25 31.99482 126.91563 39270 ft 624 kts 73°
2026-02-19 15:25 32.01617 127.01400 39255 ft 623 kts 73°
2026-02-19 15:26 32.03860 127.11256 39262 ft 621 kts 66°
2026-02-19 15:26 32.07118 127.20654 39304 ft 618 kts 62°
2026-02-19 15:27 32.10589 127.29916 39263 ft 617 kts 60°
2026-02-19 15:27 32.14104 127.39148 39262 ft 617 kts 60°
2026-02-19 15:28 32.17599 127.48404 39243 ft 617 kts 60°
2026-02-19 15:28 32.22800 127.62313 39261 ft 615 kts 61°
2026-02-19 15:29 32.26236 127.71555 39262 ft 614 kts 61°
2026-02-19 15:30 32.31395 127.85457 39273 ft 616 kts 61°
2026-02-19 15:30 32.34814 127.94709 39265 ft 613 kts 61°
2026-02-19 15:31 32.38234 128.03979 39067 ft 616 kts 61°
2026-02-19 15:31 32.41651 128.13271 38281 ft 614 kts 62°
2026-02-19 15:31 32.43353 128.17910 37547 ft 616 kts 62°
2026-02-19 15:32 32.45064 128.22574 36708 ft 620 kts 62°
2026-02-19 15:32 32.48504 128.31975 35277 ft 623 kts 63°
2026-02-19 15:32 32.50224 128.36688 34578 ft 624 kts 63°
2026-02-19 15:33 32.53651 128.46109 33178 ft 619 kts 63°
2026-02-19 15:33 32.55348 128.50783 32360 ft 617 kts 64°
2026-02-19 15:33 32.57041 128.55451 31564 ft 615 kts 64°
2026-02-19 15:34 32.60382 128.64684 30344 ft 603 kts 64°
2026-02-19 15:34 32.62026 128.69237 29737 ft 597 kts 64°
2026-02-19 15:34 32.63649 128.73734 29154 ft 590 kts 64°
2026-02-19 15:35 32.65259 128.78178 28600 ft 582 kts 63°
2026-02-19 15:35 32.67333 128.82222 28051 ft 565 kts 46°
2026-02-19 15:35 32.69997 128.85543 27541 ft 548 kts 35°
2026-02-19 15:35 32.72893 128.88392 27037 ft 535 kts 30°
2026-02-19 15:36 32.75869 128.90984 26565 ft 526 kts 27°
2026-02-19 15:36 32.81805 128.95880 25548 ft 514 kts 27°
2026-02-19 15:36 32.84716 128.98303 25065 ft 508 kts 28°
2026-02-19 15:37 32.87583 129.00729 24570 ft 503 kts 28°
2026-02-19 15:37 32.90408 129.03165 24093 ft 498 kts 29°
2026-02-19 15:37 32.93193 129.05585 23568 ft 494 kts 30°
2026-02-19 15:37 32.95952 129.07986 23057 ft 489 kts 30°
2026-02-19 15:38 32.98675 129.10361 22560 ft 483 kts 30°
2026-02-19 15:38 33.01365 129.12717 22062 ft 477 kts 30°
2026-02-19 15:38 33.04015 129.15045 21588 ft 470 kts 30°
2026-02-19 15:38 33.06630 129.17343 21119 ft 465 kts 30°
2026-02-19 15:39 33.09220 129.19618 20634 ft 460 kts 31°
2026-02-19 15:39 33.11784 129.21870 20156 ft 455 kts 31°
2026-02-19 15:39 33.14313 129.24092 19678 ft 450 kts 31°
2026-02-19 15:39 33.16820 129.26297 19193 ft 445 kts 31°
2026-02-19 15:40 33.19269 129.28451 18725 ft 440 kts 31°
2026-02-19 15:40 33.24139 129.32739 17719 ft 429 kts 32°
2026-02-19 15:41 33.28871 129.36915 16755 ft 417 kts 32°
2026-02-19 15:41 33.31191 129.38963 16301 ft 412 kts 32°
2026-02-19 15:41 33.33483 129.40986 15829 ft 407 kts 33°
2026-02-19 15:41 33.35753 129.42991 15373 ft 404 kts 33°
2026-02-19 15:42 33.38000 129.44976 14916 ft 400 kts 33°
2026-02-19 15:42 33.40211 129.46931 14650 ft 387 kts 34°
2026-02-19 15:42 33.42326 129.48810 14166 ft 372 kts 34°
2026-02-19 15:42 33.44381 129.50635 13577 ft 362 kts 34°
2026-02-19 15:43 33.46394 129.52422 13126 ft 360 kts 33°
2026-02-19 15:43 33.48400 129.54201 12584 ft 359 kts 33°
2026-02-19 15:43 33.50392 129.55971 12062 ft 354 kts 33°
2026-02-19 15:43 33.52365 129.57722 11585 ft 351 kts 33°
2026-02-19 15:44 33.54313 129.59453 11138 ft 347 kts 33°
2026-02-19 15:44 33.58111 129.62837 10518 ft 340 kts 33°
2026-02-19 15:44 33.59392 129.63975 10434 ft 340 kts 33°
2026-02-19 15:45 33.61905 129.66210 10269 ft 339 kts 33°
2026-02-19 15:45 33.63798 129.67896 10141 ft 338 kts 33°
2026-02-19 15:45 33.65688 129.69581 9979 ft 338 kts 33°
2026-02-19 15:45 33.67553 129.71280 9717 ft 330 kts 36°
2026-02-19 15:46 33.69237 129.73029 9356 ft 311 kts 38°
2026-02-19 15:46 33.70823 129.74734 9040 ft 303 kts 38°
2026-02-19 15:46 33.72383 129.76397 8749 ft 298 kts 38°
2026-02-19 15:46 33.73434 129.77508 8565 ft 297 kts 38°
2026-02-19 15:47 33.74979 129.79133 8291 ft 294 kts 38°
2026-02-19 15:47 33.76518 129.80748 8034 ft 293 kts 38°
2026-02-19 15:47 33.78028 129.82330 7744 ft 292 kts 38°
2026-02-19 15:47 33.79555 129.83928 7491 ft 290 kts 38°
2026-02-19 15:48 33.81073 129.85518 7218 ft 288 kts 38°
2026-02-19 15:48 33.84076 129.88664 6919 ft 286 kts 38°
2026-02-19 15:48 33.85574 129.90235 6909 ft 283 kts 38°
2026-02-19 15:49 33.86880 129.91968 6907 ft 284 kts 53°
2026-02-19 15:49 33.87684 129.94114 6894 ft 278 kts 77°
2026-02-19 15:49 33.87686 129.96372 6772 ft 266 kts 100°
2026-02-19 15:49 33.87276 129.98498 6634 ft 256 kts 105°
2026-02-19 15:50 33.86811 130.00523 6486 ft 247 kts 106°
2026-02-19 15:50 33.86351 130.02492 6243 ft 242 kts 106°
2026-02-19 15:50 33.85899 130.04449 5981 ft 244 kts 106°
2026-02-19 15:50 33.85445 130.06420 5724 ft 244 kts 106°
2026-02-19 15:51 33.84996 130.08383 5470 ft 242 kts 106°
2026-02-19 15:51 33.84551 130.10330 5207 ft 241 kts 106°
2026-02-19 15:51 33.84110 130.12263 4985 ft 238 kts 105°
2026-02-19 15:51 33.83671 130.14185 4845 ft 238 kts 106°
2026-02-19 15:52 33.83235 130.16098 4723 ft 237 kts 106°
2026-02-19 15:52 33.82364 130.19907 4458 ft 235 kts 106°
2026-02-19 15:52 33.81931 130.21803 4323 ft 235 kts 106°
2026-02-19 15:53 33.81500 130.23686 4193 ft 234 kts 106°
2026-02-19 15:53 33.81068 130.25571 4048 ft 233 kts 107°
2026-02-19 15:53 33.80641 130.27440 3860 ft 230 kts 107°
2026-02-19 15:53 33.80157 130.29259 3600 ft 227 kts 116°
2026-02-19 15:54 33.79287 130.30794 3417 ft 220 kts 139°
2026-02-19 15:54 33.78059 130.31870 3304 ft 217 kts 152°
2026-02-19 15:54 33.75474 130.33526 3038 ft 206 kts 153°
2026-02-19 15:55 33.74226 130.34387 2932 ft 205 kts 153°
2026-02-19 15:55 33.72987 130.35241 2817 ft 205 kts 153°
2026-02-19 15:55 33.71758 130.36082 2675 ft 199 kts 153°
2026-02-19 15:55 33.70580 130.36885 2556 ft 190 kts 153°
2026-02-19 15:56 33.69463 130.37645 2357 ft 181 kts 153°
2026-02-19 15:56 33.67320 130.39110 1835 ft 171 kts 153°
2026-02-19 15:56 33.66317 130.39795 1579 ft 161 kts 152°
2026-02-19 15:57 33.65350 130.40455 1380 ft 160 kts 152°
2026-02-19 15:57 33.64399 130.41105 1134 ft 152 kts 152°
2026-02-19 15:57 33.62681 130.42278 745 ft 135 kts 152°
2026-02-19 15:58 33.61868 130.42836 578 ft 134 kts 152°
2026-02-19 15:58 33.61052 130.43383 391 ft 134 kts 152°
2026-02-19 15:58 33.60247 130.43937 210 ft 133 kts 150°
2026-02-19 15:58 33.59443 130.44483 40 ft 131 kts 150°
2026-02-19 15:59 33.58740 130.44971 40 ft 93 kts 150°
2026-02-19 15:59 33.58332 130.45246 44 ft 41 kts 151°
2026-02-19 15:59 33.58138 130.45374 43 ft 24 kts 151°
2026-02-19 15:59 33.57983 130.45415 46 ft 23 kts 176°
2026-02-19 16:00 33.57864 130.45403 45 ft 10 kts 220°
2026-02-19 16:00 33.57789 130.45258 46 ft 9 kts 252°
2026-02-19 16:00 33.57823 130.45200 45 ft 10 kts 328°
2026-02-19 16:01 33.57895 130.45148 44 ft 14 kts 330°
2026-02-19 16:01 33.57995 130.45083 42 ft 18 kts 331°
2026-02-19 16:01 33.58111 130.45005 42 ft 20 kts 331°
2026-02-19 16:01 33.58239 130.44919 43 ft 23 kts 331°
2026-02-19 16:02 33.58366 130.44834 45 ft 17 kts 330°
2026-02-19 16:02 33.58436 130.44787 45 ft 10 kts 330°
2026-02-19 16:02 33.58486 130.44699 42 ft 8 kts 250°
2026-02-19 16:03 33.58456 130.44635 42 ft 7 kts 241°
2026-02-19 16:03 33.58445 130.44610 41 ft 3 kts 240°
2026-02-19 16:03 33.58442 130.44604 41 ft 0 kts 240°